Wind_Speed
65 65 65 64 63 62 61 60 60 59 59 58 58 57 56 55 54 53 52 51 49 47 45 43 41 39 36 35 33 32 31 28 25 25 26 24 22 21 23 26 28 29 28
71 71 69 69 67 66 65 64 64 64 64 63 63 62 61 59 58 57 55 54 52 50 48 46 44 41 39 37 35 33 32 29 26 25 25 24 22 21 22 24 26 28 28
71 68 65 63 62 61 61 61 62 62 63 65 66 66 65 64 62 60 58 56 54 51 49 47 46 43 40 38 36 34 33 30 27 26 25 24 22 21 22 23 25 27 28
61 58 55 52 50 48 48 49 51 53 56 60 63 65 67 67 66 64 62 59 56 53 50 48 46 44 41 39 37 35 33 30 28 26 24 23 22 21 21 22 24 25 27
48 45 43 41 40 39 39 39 40 41 44 48 52 56 60 63 65 67 66 63 59 55 52 49 46 44 41 39 38 36 34 31 28 26 24 22 21 20 20 20 21 23 24
41 40 40 40 39 38 36 35 34 34 35 37 40 44 48 53 57 60 63 64 63 59 55 51 47 45 42 40 38 35 33 31 28 25 24 22 20 19 18 19 19 21 23
44 44 43 43 41 39 38 36 34 33 32 32 32 34 37 41 45 50 54 59 61 61 59 54 49 46 44 41 38 35 33 30 28 25 23 22 20 19 18 18 19 20 21
47 47 47 46 45 43 41 39 37 35 33 31 30 30 31 33 36 40 44 49 54 58 59 57 53 48 45 42 39 36 33 30 27 25 23 21 20 19 19 18 19 20 20
50 49 48 47 46 45 43 41 39 37 35 33 31 29 29 29 30 32 36 39 45 51 55 56 54 50 46 43 40 36 33 30 26 24 22 21 20 19 18 18 18 17 17
52 51 50 49 47 46 45 43 41 40 38 35 33 31 29 27 27 27 29 32 37 43 49 51 51 50 47 44 40 36 33 29 25 23 21 20 19 18 17 17 18 18 18
50 49 48 48 48 47 46 44 42 40 38 36 33 31 29 27 25 25 25 27 31 37 43 45 47 48 46 44 40 36 32 28 25 22 21 19 19 18 17 17 18 19 19
46 45 44 43 42 42 42 41 40 39 38 36 34 31 29 27 26 24 23 24 26 33 41 43 44 45 45 43 40 36 32 28 25 22 21 20 19 18 19 18 18 18 19
43 41 39 37 36 36 37 37 37 37 36 34 33 31 29 27 26 24 22 23 26 32 41 43 44 43 43 42 39 35 31 27 24 22 21 19 18 18 19 19 18 19 20
36 33 32 30 29 29 30 30 31 32 32 32 31 30 28 26 24 23 22 23 26 32 41 45 46 43 41 40 37 34 30 27 24 22 20 19 18 18 18 18 18 18 19
31 28 25 23 21 21 21 22 23 26 28 27 28 27 26 24 23 22 22 22 27 33 40 47 46 43 41 38 36 32 29 26 24 22 20 19 18 19 20 20 19 19 20
28 24 21 17 14 12 12 15 18 20 22 23 24 24 23 22 21 20 19 19 26 33 40 45 44 41 39 36 33 30 28 26 25 22 21 20 20 20 20 20 21 21 21
25 21 17 12 9 5 5 8 12 16 19 21 21 22 21 20 19 19 18 18 23 33 41 42 43 40 37 34 32 30 28 26 25 23 23 23 22 22 22 22 22 22 21
25 21 16 12 8 3 2 6 9 13 16 19 20 20 19 18 17 17 18 18 24 34 40 41 41 39 37 34 32 31 29 27 25 25 25 24 24 23 23 23 22 22 22
26 22 18 13 9 7 7 8 10 13 16 18 19 19 18 17 16 16 17 20 27 36 39 39 39 38 35 33 32 31 29 28 27 26 26 25 24 24 24 23 22 22 22
26 23 19 16 13 11 11 12 14 16 17 18 19 18 17 17 17 18 19 23 32 38 39 38 38 37 35 33 32 30 29 28 27 27 26 26 25 24 23 22 22 21 21
27 23 20 18 16 14 15 16 17 18 19 19 19 19 19 19 20 22 24 29 35 37 37 37 36 35 33 32 31 30 29 28 28 27 26 25 24 23 22 22 21 21 20
29 26 23 20 18 17 18 18 18 19 20 20 21 21 22 24 25 26 29 32 34 35 36 34 33 33 32 32 30 29 29 28 27 26 25 24 23 22 22 21 20 20 20
30 28 25 24 22 21 21 20 20 20 21 21 22 23 25 27 28 30 32 32 32 33 33 32 32 32 31 31 31 30 29 28 26 25 24 23 22 21 20 20 19 19 19
32 30 28 27 25 24 23 23 23 23 23 23 24 26 29 30 30 31 33 32 31 30 30 30 30 30 30 29 29 28 27 26 25 23 22 21 20 20 19 19 19 19 19
32 31 30 28 27 26 26 25 26 26 27 27 29 30 31 31 31 32 32 31 30 29 29 29 29 29 29 27 26 26 25 24 22 21 20 19 18 17 17 17 18 18 18
30 29 28 28 28 28 27 28 28 29 30 31 32 32 31 31 32 31 31 30 29 28 27 27 27 27 26 25 24 22 21 20 19 18 17 16 16 16 16 16 17 17 18
Wind_Direction
292 289 287 284 280 277 274 271 269 267 265 263 261 260 258 257 255 254 253 254 254 256 257 260 262 264 265 268 271 276 280 282 286 287 287 287 279 266 255 246 241 238 236
292 290 288 286 283 280 276 272 269 266 263 261 260 259 258 257 256 255 254 253 253 253 255 256 258 261 262 263 266 271 275 278 282 285 284 284 278 267 257 247 241 238 236
294 292 290 287 284 281 277 273 269 265 262 259 257 256 255 255 254 254 253 252 252 252 252 253 254 257 258 259 261 266 269 273 277 282 282 281 277 266 256 246 241 238 236
296 294 292 290 287 284 281 276 271 266 261 258 256 254 252 252 251 251 251 250 250 249 250 250 251 252 254 255 257 261 264 267 272 276 279 277 275 264 254 247 241 238 237
297 296 294 292 290 288 286 282 277 271 266 261 257 253 251 250 249 248 248 247 247 246 246 247 247 247 249 250 253 256 259 262 267 271 273 274 272 262 253 246 241 236 236
296 294 293 291 290 288 286 283 280 277 272 266 261 257 253 251 249 247 246 245 244 243 242 243 243 243 244 246 249 252 254 257 262 265 267 270 266 259 250 244 241 238 236
293 290 288 286 285 284 282 281 279 277 275 271 266 261 256 253 251 248 246 244 242 240 239 238 239 239 240 242 244 245 248 253 258 261 263 265 261 252 247 244 241 240 237
291 289 286 283 280 279 277 275 274 273 271 270 267 264 259 256 253 250 247 244 240 238 236 235 235 235 236 238 238 239 243 249 253 255 256 258 257 250 245 243 241 239 237
290 287 284 281 278 275 273 271 269 268 268 266 264 264 261 257 255 252 249 245 240 235 232 230 230 231 232 233 232 234 239 244 249 250 251 252 250 245 243 239 238 237 236
292 288 284 280 276 272 269 267 265 263 263 262 261 261 259 256 254 253 250 246 239 231 226 223 223 224 226 227 227 230 233 238 241 243 245 245 243 240 238 234 233 233 229
296 291 285 280 275 271 267 264 261 259 257 256 255 254 254 252 250 250 250 245 237 224 216 214 214 216 219 221 223 225 228 232 235 237 238 238 236 234 233 230 229 225 222
300 295 289 284 277 271 265 260 257 254 252 251 249 248 248 246 244 247 248 240 230 216 206 203 204 209 212 216 217 219 222 226 229 232 232 232 230 229 229 225 221 218 219
305 299 293 287 280 272 264 258 253 250 248 245 243 242 242 241 240 241 241 235 223 209 198 193 194 199 205 209 211 214 217 220 223 225 226 224 222 221 220 218 216 213 216
315 308 301 293 283 274 264 255 250 245 241 238 236 235 235 236 234 233 234 234 222 206 194 187 187 193 198 203 206 208 211 213 216 217 217 214 213 213 211 209 207 207 206
325 319 312 303 290 275 261 249 241 236 231 228 226 225 226 227 226 227 229 232 219 203 194 186 184 188 193 197 199 202 205 208 209 208 207 204 204 204 203 201 199 197 194
334 329 325 317 304 282 258 240 228 223 219 215 214 214 216 217 218 221 221 223 211 199 191 181 178 181 186 190 193 196 198 200 201 201 199 197 198 197 196 194 191 188 187
349 347 344 339 331 307 245 217 208 204 203 201 203 205 205 205 209 212 212 209 203 194 185 177 175 177 179 183 185 188 190 194 195 194 193 192 191 191 190 187 185 185 187
3 5 7 8 12 32 140 169 176 182 186 187 189 189 190 193 196 198 200 197 190 183 177 172 171 173 175 177 179 182 184 186 187 187 186 185 184 184 184 184 185 187 190
15 19 24 31 45 72 107 130 143 154 162 166 169 172 175 177 178 180 180 176 174 173 169 167 169 170 171 173 175 177 178 179 181 181 181 181 181 181 183 185 188 191 195
22 27 34 42 56 79 102 117 127 135 144 151 156 160 161 162 161 160 159 162 165 166 166 166 168 168 168 170 172 174 174 176 178 178 179 179 180 181 185 189 192 197 201
28 33 39 49 63 82 101 113 121 127 133 139 144 148 150 150 149 147 147 154 159 161 162 163 164 165 166 168 170 171 171 173 174 176 177 179 181 185 189 193 198 203 208
35 41 48 57 71 88 100 109 116 121 126 131 136 140 141 139 138 138 143 149 154 157 159 159 160 163 165 166 167 168 169 171 173 176 179 182 185 189 193 199 205 211 216
41 47 55 64 74 87 97 104 110 116 122 127 130 133 134 136 136 138 141 145 150 153 155 156 158 162 164 164 166 168 170 172 175 179 182 186 189 194 199 205 212 218 224
47 52 59 66 74 83 92 99 106 113 119 123 126 130 133 135 137 140 143 147 149 151 154 156 157 160 162 164 166 169 172 175 178 182 186 190 194 200 206 212 220 227 233
50 56 63 69 76 83 89 95 102 109 115 118 121 124 128 132 136 140 144 146 147 149 151 153 156 159 160 162 166 170 174 178 182 186 191 196 201 208 214 222 229 236 242
53 59 65 71 76 82 88 94 100 105 110 113 117 121 124 129 133 136 139 141 142 144 147 151 155 157 160 163 168 172 176 181 187 192 197 203 210 217 224 231 238 244 250
Height
5714 5710 5708 5705 5704 5703 5703 5703 5704 5705 5706 5708 5710 5712 5715 5717 5720 5723 5726 5730 5733 5736 5739 5741 5744 5746 5748 5749 5750 5751 5750 5750 5750 5748 5745 5743 5742 5741 5741 5743 5745 5748 5751
5691 5687 5683 5679 5677 5676 5676 5677 5679 5681 5683 5686 5688 5691 5694 5698 5701 5705 5709 5713 5717 5722 5725 5729 5732 5735 5738 5740 5741 5742 5742 5742 5743 5741 5739 5737 5736 5735 5735 5736 5739 5741 5744
5669 5664 5660 5656 5653 5651 5650 5650 5652 5655 5658 5661 5664 5668 5673 5677 5681 5686 5691 5696 5701 5706 5711 5715 5720 5724 5727 5730 5732 5734 5734 5735 5735 5734 5733 5731 5729 5729 5729 5730 5732 5735 5738
5650 5645 5640 5636 5633 5631 5629 5628 5629 5630 5632 5635 5639 5644 5649 5654 5659 5665 5671 5678 5684 5690 5696 5702 5707 5712 5716 5719 5722 5724 5726 5727 5727 5727 5726 5725 5723 5723 5723 5724 5726 5729 5731
5635 5630 5626 5622 5619 5616 5614 5612 5611 5611 5612 5614 5617 5620 5625 5630 5637 5643 5650 5658 5666 5674 5681 5687 5693 5699 5704 5708 5712 5714 5716 5718 5719 5720 5719 5718 5717 5717 5718 5719 5720 5723 5725
5623 5619 5615 5611 5607 5604 5602 5599 5598 5597 5597 5598 5599 5602 5606 5610 5615 5621 5629 5637 5646 5655 5664 5672 5679 5686 5691 5697 5701 5704 5707 5710 5711 5712 5713 5712 5712 5711 5712 5713 5715 5717 5719
5611 5607 5602 5598 5595 5592 5590 5588 5587 5586 5586 5586 5587 5588 5591 5594 5598 5603 5609 5617 5626 5636 5646 5656 5664 5672 5679 5685 5690 5694 5698 5701 5704 5705 5706 5706 5706 5706 5707 5708 5710 5712 5714
5596 5591 5587 5584 5581 5579 5577 5576 5575 5575 5575 5575 5576 5577 5579 5581 5583 5587 5592 5599 5607 5616 5627 5639 5649 5658 5666 5673 5679 5685 5689 5693 5695 5697 5699 5699 5700 5700 5701 5703 5704 5706 5708
5579 5574 5570 5567 5564 5563 5562 5562 5562 5562 5563 5564 5566 5567 5568 5570 5572 5575 5579 5584 5591 5599 5610 5621 5633 5644 5654 5662 5669 5675 5680 5684 5687 5690 5691 5692 5693 5694 5696 5697 5699 5700 5702
5559 5555 5551 5548 5546 5545 5545 5546 5547 5549 5550 5552 5554 5556 5558 5560 5562 5564 5568 5572 5578 5585 5595 5606 5619 5630 5640 5649 5658 5665 5671 5676 5680 5683 5684 5686 5687 5688 5690 5691 5694 5696 5697
5540 5534 5530 5527 5526 5526 5527 5529 5531 5534 5536 5540 5543 5546 5548 5551 5553 5556 5558 5561 5566 5572 5581 5593 5605 5617 5628 5638 5648 5656 5662 5668 5672 5675 5678 5680 5681 5683 5685 5687 5689 5691 5694
5521 5515 5511 5508 5506 5507 5508 5511 5514 5518 5522 5527 5531 5535 5539 5542 5545 5548 5550 5553 5556 5562 5571 5582 5594 5606 5617 5628 5638 5647 5654 5660 5665 5669 5671 5674 5676 5678 5680 5682 5684 5687 5690
5505 5499 5494 5491 5490 5490 5492 5495 5499 5504 5509 5514 5519 5524 5529 5533 5537 5540 5542 5545 5549 5554 5562 5573 5584 5597 5608 5619 5629 5638 5646 5652 5658 5662 5665 5668 5671 5673 5676 5678 5680 5683 5687
5492 5486 5481 5478 5476 5476 5477 5481 5485 5491 5496 5502 5508 5514 5520 5525 5529 5533 5536 5538 5541 5546 5553 5564 5576 5588 5600 5611 5622 5631 5639 5646 5651 5656 5660 5663 5666 5669 5672 5675 5677 5680 5684
5483 5477 5472 5468 5466 5466 5467 5470 5475 5480 5486 5493 5500 5506 5512 5518 5522 5526 5529 5532 5535 5539 5547 5557 5569 5582 5594 5605 5615 5625 5633 5640 5645 5650 5655 5658 5662 5665 5668 5672 5675 5678 5682
5478 5472 5467 5463 5461 5460 5461 5464 5468 5474 5480 5486 5493 5500 5506 5512 5516 5520 5524 5526 5529 5535 5543 5554 5566 5579 5591 5601 5611 5620 5628 5635 5640 5645 5650 5654 5658 5662 5666 5669 5673 5677 5680
5476 5470 5465 5461 5459 5458 5459 5462 5466 5471 5476 5483 5489 5496 5502 5507 5512 5516 5519 5522 5526 5532 5542 5553 5565 5577 5589 5599 5608 5616 5624 5630 5636 5641 5646 5651 5655 5659 5663 5667 5671 5675 5679
5477 5470 5466 5462 5461 5460 5461 5463 5466 5470 5476 5481 5488 5494 5500 5505 5509 5513 5516 5521 5526 5533 5544 5555 5566 5577 5587 5597 5605 5613 5620 5627 5633 5638 5643 5648 5653 5657 5662 5666 5670 5674 5678
5480 5474 5470 5466 5464 5464 5465 5467 5469 5473 5478 5483 5489 5494 5499 5504 5508 5512 5516 5522 5528 5537 5547 5557 5568 5578 5587 5596 5604 5611 5618 5625 5631 5636 5642 5647 5651 5656 5660 5665 5669 5673 5676
5486 5480 5476 5473 5470 5470 5471 5472 5475 5478 5482 5487 5492 5496 5501 5505 5509 5514 5519 5525 5532 5541 5551 5560 5570 5579 5588 5596 5604 5611 5618 5624 5630 5635 5641 5646 5650 5655 5659 5663 5667 5671 5674
5493 5488 5483 5480 5478 5477 5478 5480 5482 5485 5488 5492 5496 5500 5504 5508 5513 5518 5523 5531 5539 5547 5556 5565 5573 5582 5589 5597 5604 5611 5617 5624 5630 5635 5641 5645 5650 5654 5658 5662 5665 5668 5672
5502 5496 5492 5489 5486 5486 5487 5488 5490 5492 5495 5498 5502 5505 5509 5513 5518 5524 5531 5538 5546 5554 5562 5570 5577 5585 5592 5599 5606 5613 5619 5625 5631 5636 5641 5645 5649 5653 5657 5660 5663 5666 5668
5512 5507 5502 5499 5497 5495 5495 5497 5498 5500 5503 5505 5509 5512 5516 5521 5526 5532 5539 5546 5553 5561 5568 5575 5582 5589 5595 5601 5608 5614 5620 5626 5631 5636 5641 5645 5648 5652 5655 5658 5661 5663 5665
5523 5518 5514 5511 5508 5507 5506 5507 5508 5510 5512 5514 5517 5520 5524 5529 5535 5541 5548 5555 5561 5568 5575 5581 5587 5593 5599 5605 5611 5616 5622 5627 5632 5636 5640 5644 5647 5650 5653 5655 5657 5659 5661
5536 5531 5527 5524 5521 5519 5519 5518 5519 5520 5521 5524 5526 5530 5534 5539 5544 5550 5556 5563 5569 5575 5580 5586 5592 5598 5603 5609 5614 5619 5624 5628 5632 5636 5640 5643 5645 5648 5650 5652 5654 5655 5656
5549 5544 5541 5537 5535 5533 5532 5531 5531 5532 5533 5536 5538 5541 5545 5550 5555 5560 5565 5571 5576 5582 5587 5592 5598 5603 5608 5612 5617 5621 5625 5629 5633 5636 5639 5641 5644 5646 5647 5649 5649 5650 5650